Location: Tamazert
(32.6352°N, 5.2072°W)
Time: 23:07:56
(UTC+00:00)

CZ-4C R/B - Pass Details

Date: 22 May 2022
Orbit: 582 x 1419 km, 63.4° (Epoch: 24 June)

Event Time Altitude Azimuth Distance (km) Brightness Sun altitude
Rises 03:28:34 0° 315° (NW) 4,129 5.8 -20.1°
Reaches altitude 10° 03:31:39 10° 305° (NW) 3,267 5.1 -19.6°
Maximum altitude 03:38:16 28° 250° (WSW) 2,313 3.9 -18.5°
Enters shadow 03:40:18 26° 228° (SW) 2,455 3.9 -18.2°
